Location: Unspecified
(0.0000°N, 0.0000°E)
Time: 11:11:31
(UTC+00:00)

deb r/b Ablestar - Pass Details

Date: 17 April 2026
Orbit: 834 x 1371 km, 65.9° (Epoch: 10 May)

Event Time Altitude Azimuth Distance (km) Brightness Sun altitude
Exits shadow 04:18:47 10° 191° (S) 2,947 ? -24.8°
Maximum altitude 04:25:48 67° 110° (ESE) 1,294 ? -23.1°
Drops below altitude 10° 04:33:45 10° 28° (NNE) 3,310 ? -21.1°
Sets 04:36:43 0° 26° (NNE) 4,327 ? -20.4°
